STARLINK-3848, 52362

Orbit data source: Space-Track

STARLINK-3848, 52362 is a payload satellite owned by SpaceX/Seattle (US) in LEO that was launched on Fri, 29 Apr 2022 UTC via an FALCON 9 launch vehicle from the Air Force Eastern Test Range (AFETR). Payload-class satellites include a variety of spacecraft equipped with specific instruments for various scientific and technological missions. These include communications satellites like Starlink; space stations such as the ISS; scientific satellites like the Hubble; Earth observation satellites from companies like Planet Labs, Umbra, and HawkEye 360; GPS; miniature CubeSats for education and research; and military/defense satellites.

Loading next visibility...
Identifier
52362, 2022-045AH
Orbit
LEO
Country
Flag of USUS
Related business
Manufacturer
SpaceX/Seattle
Mission
Operational Commercial Communications
Bus & Motor
STARLINK, Unknown motor
Mass
297 kg wet, ~275 kg dry
Launch date (UTC)
2022-04-29 (4 years ago)
Launch vehicle
FALCON 9
Launch site
Air Force Eastern Test Range (AFETR)
Object type
Payload
Rocket body
Debris
Shape & HBR
Box + 1 Pan, 10.1 m
Radar Cross Section
11.087 m², Large (>1 m²)

Expand to show TLE details & history
Last TLE update: 17 hours ago

TLE from 17 hours ago
0 STARLINK-3848
1 52362U 22045AH  25349.92559861  .00000556  00000-0  53019-4 0  9997
2 52362  53.2161 205.1495 0001488  87.8743 272.2420 15.08841838203271
Epoch: 2025-12-15T22:12Z
TLE epoch observation values (Epoch: 2025-12-15T22:12:51.719Z)
Latitude
-0.00001°
Longitude
147.11683°
Altitude
540.595 km
Speed
7.593 km/s
True Right ascension
13h 40m 35s
True Declination
0° 00' 00"
Sunlit
Object was in daylight at epoch
Visualization orbit readout
Latitude
Unknown
Longitude
Unknown
Altitude
Unknown
Speed
Unknown
Apparent Right ascension
Unknown
Apparent Declination
Unknown
Sunlit
N/A
Visualization observer readout
Local Sidereal Time
13:48:17
Azimuth
Unknown
Elevation
Unknown
Doppler factor
Unknown
Orbital elements
Apogee altitude
541.012 km
Perigee altitude
538.954 km
Semi-major axis
6,918.12 km
Eccentricity
0.00015
Inclination
53.2161°
RAAN
205.1495°
Arg. of periapsis
87.8743°
True anomaly
272.22496°
Mean anomaly
272.242°
Eccentric anomaly
272.23348°
Mean motion
3.77191 °/min
Orbital period
95.44 mins
BSTAR
0.000053019
Loading maneuver chart data...
Computing Atmospheric mass density...

Documentation

Showing up to 5 results
|